Location: Nitra
(0.0000°N, 18.0833°E)
Time: 18:41:38
(UTC+02:00)

Tiros 1 - All Passes

Search period start: 31 March 2023 00:00
Search period end: 10 April 2023 00:00
Orbit: 627 x 662 km, 48.4° (Epoch: 30 March)

Date Brightness Start Highest point End Pass type
(mag) Time Alt. Az. Time Alt. Az. Time Alt. Az.
31 Mar - 01:10:03 10° SW 01:14:37 54° NW 01:19:14 10° NNE night (unlit)
31 Mar - 11:41:46 10° N 11:45:19 21° NE 11:48:50 10° E daylight
31 Mar - 13:23:12 10° WNW 13:27:17 29° SW 13:31:20 10° S daylight
31 Mar - 23:53:30 10° SSW 23:57:48 37° SE 00:02:08 10° ENE night (unlit)
01 Apr - 01:36:43 10° W 01:39:47 17° NW 01:42:52 10° N night (unlit)
01 Apr - 12:05:47 10° NNW 12:10:28 69° NE 12:15:07 10° SE daylight
02 Apr - 00:18:16 10° SW 00:22:54 65° NW 00:27:34 10° NNE night (unlit)
02 Apr - 10:50:22 10° N 10:53:35 18° NE 10:56:46 10° E daylight
02 Apr - 12:31:17 10° WNW 12:35:33 35° SW 12:39:49 10° SSE daylight
02 Apr - 23:01:58 10° SSW 23:06:05 31° SE 23:10:13 10° ENE night (unlit)
03 Apr - 00:44:38 10° W 00:48:03 20° NW 00:51:29 10° N night (unlit)
03 Apr - 11:14:06 10° NNW 11:18:44 57° NE 11:23:20 10° SE daylight
03 Apr - 12:59:24 10° WSW 13:00:44 11° SW 13:02:05 10° SSW daylight
03 Apr - 23:26:32 10° SW 23:31:10 77° NW 23:35:51 10° NE night (unlit)
04 Apr - 09:59:02 10° NNE 10:01:50 15° NE 10:04:36 10° E daylight
04 Apr - 11:39:23 10° WNW 11:43:49 41° SW 11:48:15 10° SSE daylight
04 Apr - 22:10:27 10° S 22:14:20 26° SE 22:18:15 10° ENE night (unlit)
04 Apr - 23:52:35 10° WSW 23:56:18 23° NW 00:00:01 10° N night (unlit)
05 Apr - 10:22:25 10° NNW 10:26:59 48° NE 10:31:31 10° SE daylight
05 Apr - 12:06:43 10° W 12:08:58 13° SW 12:11:14 10° SSW daylight
05 Apr - 22:34:47 10° SW 22:39:26 89° ESE 22:44:07 10° NE night (unlit)
06 Apr - 09:07:50 10° NNE 09:10:03 13° NE 09:12:16 10° ENE daylight
06 Apr - 10:47:30 10° NW 10:52:05 49° SW 10:56:37 10° SSE daylight
06 Apr - 21:18:58 10° S 21:22:36 22° SE 21:26:13 10° ENE night (unlit)
06 Apr - 23:00:36 10° WSW 23:04:32 27° NW 23:08:30 10° N night (unlit)
07 Apr - 09:30:46 10° NNW 09:35:14 40° NE 09:39:39 10° ESE daylight
07 Apr - 11:14:21 10° W 11:17:12 16° SW 11:20:02 10° SSW daylight
07 Apr - 21:43:04 10° SW 21:47:40 75° SE 21:52:20 10° NE night (unlit)
08 Apr - 08:16:55 10° NNE 08:18:16 11° NE 08:19:36 10° ENE daylight
08 Apr - 09:55:38 10° NW 10:00:19 59° SW 10:04:57 10° SSE daylight
08 Apr - 20:27:32 10° S 20:30:49 19° SE 20:34:06 10° E visible
08 Apr - 22:08:39 10° WSW 22:12:46 32° NW 22:16:55 10° NNE night (unlit)
09 Apr - 08:39:07 10° NNW 08:43:27 34° NE 08:47:44 10° ESE daylight
09 Apr - 10:22:07 10° W 10:25:24 19° SW 10:28:42 10° S daylight
09 Apr - 20:51:21 10° SSW 20:55:55 62° SE 21:00:30 10° NE visible
